Hourly Data Report for July 15, 2016

OTTAWA INTL A
ONTARIO

45°19'00.000" N
75°40'00.000" W
114.90 m
6106001
71628
YOW

Download Data

Hourly Data (July 2016)
Hourly Data Report for July 15, 2016
TIME
LST
Temp Definition
°C
Dew Point Definition
°C
Rel Hum Definition
%
Precip. Amount Definition
mm

Wind Dir Definition
10's deg

Wind Spd Definition
km/h
Visibility Definition
km
Stn Press Definition
kPa
Hmdx Definition


Wind Chill Definition


Weather Definition


00:00 19.7 18.0 90   22 11 24.1 99.26     LegendNANA
01:00 19.4 17.7 90   23 17 24.1 99.25     Mainly Clear
02:00 19.2 17.6 90   22 12 24.1 99.26     LegendNANA
03:00 18.4 17.3 93   23 10 24.1 99.30     LegendNANA
04:00 18.3 16.8 91   25 10 24.1 99.33     Mostly Cloudy
05:00 17.7 16.7 94   21 7 24.1 99.40     LegendNANA
06:00 19.4 17.4 88   23 14 24.1 99.47     LegendNANA
07:00 21.2 17.9 81   25 13 24.1 99.54 27   Mainly Clear
08:00 22.8 18.4 76   26 13 24.1 99.55 29   LegendNANA
09:00 24.1 17.5 66   26 19 24.1 99.55 30   LegendNANA
10:00 24.9 18.7 68   26 11 24.1 99.54 31   Mainly Clear
11:00 26.1 17.9 60   25 18 24.1 99.52 32   LegendNANA
12:00 25.2 17.5 62   24 9 24.1 99.48 31   LegendNANA
13:00 27.9 18.8 57   24 16 24.1 99.39 35   Mostly Cloudy
14:00 29.7 18.4 50   21 16 24.1 99.35 36   LegendNANA
15:00 27.5 16.0 49   23 30 24.1 99.34 32   LegendNANA
16:00 19.7 17.9 89   33 30 24.1 99.56     Rain Showers
17:00 20.4 17.8 85   1 10 24.1 99.55 26   LegendNANA
18:00 20.6 18.0 85   26 8 24.1 99.65 27   LegendNANA
19:00 20.2 17.8 86   30 17 24.1 99.65 26   Mostly Cloudy
20:00 18.6 17.5 93   34 15 24.1 99.73     LegendNANA
21:00 18.4 17.1 92   33 10 24.1 99.80     LegendNANA
22:00 17.4 16.3 93   32 12 16.1 99.85     Drizzle
23:00 16.5 15.4 93   35 11 16.1 99.92     Rain

Notes on Data Quality.

Legend

  • E = Estimated
  • M = Missing
  • NA = Not Available*
  • [empty] = Indicates an unobserved value
Date modified: